Weather History for KPCM - May, 2014

Change the Weather History Date:

Monday, May 12, 2014

  Actual Average Record
Temperature  
Mean Temperature 81 °F -  
Max Temperature 91 °F 88 °F 98 °F (1967)
Min Temperature 71 °F 62 °F 48 °F (1938)
Cooling Degree Days 16    
Growing Degree Days 31 (Base 50)    
Moisture  
Dew Point 66 °F    
Average Humidity 64    
Maximum Humidity 94    
Minimum Humidity 36    
Precipitation  
Precipitation 0.00 in - - ()
Sea Level Pressure  
Sea Level Pressure 30.13 in    
Wind  
Wind Speed 7 mph (East)    
Max Wind Speed 15 mph    
Max Gust Speed 25 mph    
Visibility 10 miles    
Events      
Averages and records for this station are not official NWS values.
T = Trace of Precipitation, MM = Missing Value Source: NWS Daily Summary

Daily Weather History Graph

Daily Weather History Graph

Search for Another Location

Airport or City:

Trip Planner

Search our weather history database for the weather conditions in past years. The results will help you decide how hot, cold, wet, or windy it might be!

Date:

Astronomy

May. 12, 2014 Rise Set
Actual Time 6:40 AM EDT 8:09 PM EDT
Civil Twilight 6:15 AM EDT 8:34 PM EDT
Nautical Twilight 5:45 AM EDT 9:05 PM EDT
Astronomical Twilight 5:13 AM EDT 9:37 PM EDT
Moon 6:16 PM EDT (5/12) 5:06 AM EDT (5/12)
Length of Visible Light 14h 19m
Length of Day
13h 28m
Waxing Gibbous, 95% of the Moon is Illuminated
May 12
Waxing Gibbous
May 14
Full
May 21
Last Quarter
May 28
New
Jun 5
First Quarter

Hourly Weather History & Observations

Time (EDT) Temp. Heat Index Dew Point Humidity Pressure Visibility Wind Dir Wind Speed Gust Speed Precip Events Conditions
12:15 AM 77.0 °F - 68.0 °F 74% 30.14 in 10.0 mi ESE 8.1 mph - N/A   Clear
12:35 AM 77.0 °F - 68.0 °F 74% 30.14 in 10.0 mi ESE 6.9 mph - N/A   Clear
12:55 AM 75.2 °F - 69.8 °F 83% 30.14 in 10.0 mi ESE 4.6 mph - N/A   Clear
1:15 AM 75.2 °F - 69.8 °F 83% 30.14 in 10.0 mi ESE 5.8 mph - N/A   Clear
1:35 AM 75.2 °F - 69.8 °F 83% 30.13 in 10.0 mi ESE 4.6 mph - N/A   Mostly Cloudy
1:55 AM 75.2 °F - 69.8 °F 83% 30.13 in 10.0 mi ESE 4.6 mph - N/A   Mostly Cloudy
2:15 AM 75.2 °F - 69.8 °F 83% 30.12 in 10.0 mi East 4.6 mph - N/A   Scattered Clouds
2:35 AM 73.4 °F - 68.0 °F 83% 30.12 in 10.0 mi East 4.6 mph - N/A   Clear
2:55 AM 73.4 °F - 68.0 °F 83% 30.12 in 10.0 mi East 4.6 mph - N/A   Clear
3:15 AM 73.4 °F - 68.0 °F 83% 30.11 in 10.0 mi East 5.8 mph - N/A   Clear
3:35 AM 73.4 °F - 68.0 °F 83% 30.11 in 10.0 mi East 4.6 mph - N/A   Clear
3:55 AM 73.4 °F - 68.0 °F 83% 30.11 in 10.0 mi ESE 4.6 mph - N/A   Clear
4:15 AM 73.4 °F - 68.0 °F 83% 30.11 in 10.0 mi East 4.6 mph - N/A   Clear
4:35 AM 73.4 °F - 68.0 °F 83% 30.10 in 10.0 mi ESE 3.5 mph - N/A   Clear
4:55 AM 71.6 °F - 68.0 °F 88% 30.10 in 10.0 mi ESE 3.5 mph - N/A   Clear
5:15 AM 71.6 °F - 68.0 °F 88% 30.11 in 10.0 mi East 3.5 mph - N/A   Clear
5:35 AM 71.6 °F - 68.0 °F 88% 30.11 in 10.0 mi Calm Calm - N/A   Clear
5:55 AM 71.6 °F - 68.0 °F 88% 30.11 in 10.0 mi East 3.5 mph - N/A   Clear
6:35 AM 71.6 °F - 69.8 °F 94% 30.12 in 10.0 mi East 4.6 mph - N/A   Clear
6:55 AM 71.6 °F - 69.8 °F 94% 30.13 in 10.0 mi ENE 4.6 mph - N/A   Clear
7:15 AM 73.4 °F - 69.8 °F 88% 30.14 in 10.0 mi Calm Calm - N/A   Clear
7:35 AM 75.2 °F - 69.8 °F 83% 30.15 in 10.0 mi North - - N/A   Clear
7:55 AM 75.2 °F - 69.8 °F 83% 30.16 in 10.0 mi East 3.5 mph - N/A   Clear
8:15 AM 75.2 °F - 69.8 °F 83% 30.16 in 10.0 mi East 3.5 mph - N/A   Clear
8:35 AM 75.2 °F - 71.6 °F 89% 30.16 in 10.0 mi East 3.5 mph - N/A   Clear
8:55 AM 77.0 °F - 71.6 °F 83% 30.16 in 10.0 mi East 3.5 mph - N/A   Clear
9:15 AM 78.8 °F - 71.6 °F 78% 30.17 in 10.0 mi East 3.5 mph - N/A   Clear
9:35 AM 78.8 °F - 71.6 °F 78% 30.17 in 10.0 mi East 5.8 mph - N/A   Clear
9:55 AM 80.6 °F 83.9 °F 69.8 °F 70% 30.17 in 10.0 mi ESE 6.9 mph - N/A   Clear
10:15 AM 82.4 °F 85.4 °F 68.0 °F 62% 30.18 in 10.0 mi SE 10.4 mph - N/A   Clear
10:35 AM 82.4 °F 85.4 °F 68.0 °F 62% 30.18 in 10.0 mi ESE 9.2 mph - N/A   Scattered Clouds
10:55 AM 84.2 °F 87.3 °F 68.0 °F 58% 30.18 in 10.0 mi ESE 8.1 mph - N/A   Clear
11:15 AM 86.0 °F 87.3 °F 64.4 °F 48% 30.18 in 10.0 mi East 9.2 mph - N/A   Clear
11:35 AM 84.2 °F 86.6 °F 66.2 °F 55% 30.18 in 10.0 mi East 5.8 mph - N/A   Clear
11:55 AM 84.2 °F 85.6 °F 64.4 °F 51% 30.17 in 10.0 mi East 4.6 mph - N/A   Scattered Clouds
12:15 PM 87.8 °F 89.4 °F 64.4 °F 46% 30.17 in 10.0 mi East 11.5 mph 25.3 mph N/A   Scattered Clouds
12:35 PM 86.0 °F 87.3 °F 64.4 °F 48% 30.17 in 10.0 mi ENE 10.4 mph 16.1 mph N/A   Scattered Clouds
12:55 PM 87.8 °F 88.5 °F 62.6 °F 43% 30.17 in 10.0 mi ENE 8.1 mph 16.1 mph N/A   Scattered Clouds
1:15 PM 87.8 °F 88.5 °F 62.6 °F 43% 30.16 in 10.0 mi East 8.1 mph - N/A   Clear
1:35 PM 89.6 °F 89.5 °F 60.8 °F 38% 30.15 in 10.0 mi East 8.1 mph - N/A   Clear
1:55 PM 89.6 °F 88.9 °F 59.0 °F 36% 30.14 in 10.0 mi East 8.1 mph - N/A   Scattered Clouds
2:15 PM 89.6 °F 88.9 °F 59.0 °F 36% 30.14 in 10.0 mi East 6.9 mph 10.4 mph N/A   Scattered Clouds
2:35 PM 89.6 °F 88.9 °F 59.0 °F 36% 30.14 in 10.0 mi East 8.1 mph 16.1 mph N/A   Mostly Cloudy
2:55 PM 87.8 °F 87.1 °F 59.0 °F 38% 30.14 in 10.0 mi East 8.1 mph - N/A   Mostly Cloudy
3:35 PM 91.4 °F 91.4 °F 60.8 °F 36% 30.12 in 10.0 mi ENE 10.4 mph - N/A   Scattered Clouds
3:55 PM 91.4 °F 91.4 °F 60.8 °F 36% 30.12 in 10.0 mi East 10.4 mph - N/A   Scattered Clouds
4:15 PM 87.8 °F 88.5 °F 62.6 °F 43% 30.12 in 10.0 mi East 10.4 mph 17.3 mph N/A   Scattered Clouds
4:35 PM 87.8 °F 88.5 °F 62.6 °F 43% 30.10 in 10.0 mi ENE 13.8 mph 18.4 mph N/A   Scattered Clouds
4:55 PM 87.8 °F 88.5 °F 62.6 °F 43% 30.10 in 10.0 mi ENE 13.8 mph 19.6 mph N/A   Clear
5:15 PM 87.8 °F 88.5 °F 62.6 °F 43% 30.09 in 10.0 mi ENE 9.2 mph - N/A   Clear
5:35 PM 87.8 °F 87.6 °F 60.8 °F 40% 30.09 in 10.0 mi ENE 12.7 mph 18.4 mph N/A   Clear
5:55 PM 87.8 °F 88.5 °F 62.6 °F 43% 30.09 in 10.0 mi ENE 13.8 mph 19.6 mph N/A   Clear
6:15 PM 87.8 °F 88.5 °F 62.6 °F 43% 30.09 in 10.0 mi ENE 13.8 mph 19.6 mph N/A   Clear
6:35 PM 86.0 °F 86.6 °F 62.6 °F 45% 30.09 in 10.0 mi ENE 15.0 mph 20.7 mph N/A   Clear
6:55 PM 86.0 °F 86.1 °F 60.8 °F 43% 30.09 in 10.0 mi East 10.4 mph 20.7 mph N/A   Clear
7:15 PM 86.0 °F 86.6 °F 62.6 °F 45% 30.09 in 10.0 mi East 11.5 mph 16.1 mph N/A   Scattered Clouds
7:35 PM 84.2 °F 84.4 °F 60.8 °F 45% 30.09 in 10.0 mi East 9.2 mph - N/A   Clear
7:55 PM 84.2 °F 85.6 °F 64.4 °F 51% 30.10 in 10.0 mi East 11.5 mph 21.9 mph N/A   Clear
8:15 PM 82.4 °F 83.9 °F 64.4 °F 54% 30.10 in 10.0 mi East 11.5 mph 16.1 mph N/A   Clear
8:35 PM 82.4 °F 83.9 °F 64.4 °F 54% 30.10 in 10.0 mi East 10.4 mph 17.3 mph N/A   Clear
8:55 PM 80.6 °F 82.3 °F 64.4 °F 58% 30.11 in 10.0 mi East 11.5 mph - N/A   Clear
9:15 PM 80.6 °F 82.3 °F 64.4 °F 58% 30.11 in 10.0 mi East 8.1 mph - N/A   Clear
9:35 PM 78.8 °F - 64.4 °F 61% 30.12 in 10.0 mi East 8.1 mph - N/A   Clear
9:55 PM 78.8 °F - 64.4 °F 61% 30.12 in 10.0 mi East 9.2 mph - N/A   Clear
10:15 PM 78.8 °F - 66.2 °F 65% 30.13 in 10.0 mi East 8.1 mph - N/A   Clear
10:35 PM 78.8 °F - 68.0 °F 69% 30.13 in 10.0 mi East 9.2 mph - N/A   Clear
10:55 PM 77.0 °F - 68.0 °F 74% 30.13 in 10.0 mi East 6.9 mph - N/A   Clear
11:15 PM 77.0 °F - 69.8 °F 78% 30.13 in 10.0 mi East 9.2 mph - N/A   Clear
11:35 PM 77.0 °F - 69.8 °F 78% 30.12 in 10.0 mi East 9.2 mph - N/A   Clear
11:55 PM 77.0 °F - 69.8 °F 78% 30.11 in 10.0 mi East 8.1 mph - N/A   Clear